• In Netherlands
  • List of Countries
  • For 7 days
  • Water Temperature
  • Satellite Maps
  • Weather Map
  • Weather Widgets
  • user-avatar
    Login

    Hourly Weather Megri

    Today, 17 January, Tuesday

    Time Temperature Precipitation Wind Pressure Humidity
    00:00 -11°C° 0 mm 1 mps 619 mmHg 78%
    01:00 -11°C° 0 mm 1 mps 619 mmHg 77%
    02:00 -10°C° 0 mm 1 mps 619 mmHg 77%
    03:00 -10°C° 0 mm 1 mps 619 mmHg 76%
    04:00 -10°C° 0 mm 1 mps 619 mmHg 76%
    05:00 -10°C° 0 mm 1 mps 619 mmHg 76%
    06:00 -10°C° 0 mm 1 mps 619 mmHg 76%
    07:00 -8°C° 0 mm 1 mps 620 mmHg 75%
    08:00 -6°C° 0 mm 1 mps 621 mmHg 74%
    09:00 -3°C° 0 mm 1 mps 622 mmHg 73%
    10:00 -1°C° 0 mm 1 mps 623 mmHg 74%
    11:00 0°C° 0 mm 1 mps 623 mmHg 75%
    12:00 +2°C° 0 mm 1 mps 623 mmHg 77%
    13:00 +2°C° 0 mm 1 mps 623 mmHg 77%
    14:00 +1°C° 0 mm 1 mps 623 mmHg 78%
    15:00 +1°C° 0 mm 1 mps 622 mmHg 78%
    16:00 -2°C° 0 mm 1 mps 621 mmHg 81%
    17:00 -4°C° 0 mm 1 mps 620 mmHg 83%
    18:00 -8°C° 0 mm 1 mps 619 mmHg 85%
    19:00 -8°C° 0 mm 1 mps 619 mmHg 84%
    20:00 -9°C° 0 mm 1 mps 619 mmHg 82%
    21:00 -9°C° 0 mm 1 mps 619 mmHg 81%
    22:00 -9°C° 0 mm 1 mps 619 mmHg 80%
    23:00 -9°C° 0 mm 1 mps 618 mmHg 78%

    Tomorrow, 18 January, Wednesday

    Time Temperature Precipitation Wind Pressure Humidity
    00:00 -9°C° 0 mm 1 mps 618 mmHg 77%
    01:00 -9°C° 0 mm 1 mps 618 mmHg 77%
    02:00 -9°C° 0 mm 1 mps 618 mmHg 76%
    03:00 -9°C° 0 mm 1 mps 618 mmHg 75%
    04:00 -9°C° 0 mm 1 mps 618 mmHg 74%
    05:00 -9°C° 0 mm 1 mps 618 mmHg 74%
    06:00 -9°C° 0 mm 1 mps 618 mmHg 73%
    07:00 -7°C° 0 mm 1 mps 619 mmHg 72%
    08:00 -4°C° 0 mm 1 mps 621 mmHg 71%
    09:00 -1°C° 0 mm 1 mps 622 mmHg 70%
    10:00 0°C° 0 mm 1 mps 622 mmHg 70%
    11:00 +1°C° 0 mm 1 mps 622 mmHg 71%
    12:00 +2°C° 0 mm 1 mps 622 mmHg 71%
    13:00 +2°C° 0 mm 1 mps 622 mmHg 71%
    14:00 +2°C° 0 mm 1 mps 622 mmHg 71%
    15:00 +2°C° 0 mm 1 mps 622 mmHg 71%
    16:00 -1°C° 0 mm 1 mps 621 mmHg 74%
    17:00 -4°C° 0 mm 1 mps 619 mmHg 77%
    18:00 -8°C° 0 mm 1 mps 618 mmHg 80%
    19:00 -8°C° 0 mm 1 mps 618 mmHg 80%
    20:00 -8°C° 0 mm 1 mps 618 mmHg 80%
    21:00 -9°C° 0 mm 1 mps 618 mmHg 79%
    22:00 -9°C° 0 mm 1 mps 618 mmHg 79%
    23:00 -9°C° 0 mm 1 mps 618 mmHg 78%

    Day after tomorrow, 19 January, Thursday

    Time Temperature Precipitation Wind Pressure Humidity
    00:00 -9°C° 0 mm 1 mps 618 mmHg 77%
    01:00 -9°C° 0 mm 1 mps 618 mmHg 77%
    02:00 -9°C° 0 mm 1 mps 618 mmHg 76%
    03:00 -9°C° 0 mm 1 mps 618 mmHg 75%
    04:00 -9°C° 0 mm 1 mps 618 mmHg 75%
    05:00 -9°C° 0 mm 1 mps 618 mmHg 75%
    06:00 -10°C° 0 mm 1 mps 618 mmHg 74%
    07:00 -8°C° 0 mm 1 mps 620 mmHg 72%
    08:00 -6°C° 0 mm 1 mps 621 mmHg 70%
    09:00 -3°C° 0 mm 1 mps 622 mmHg 69%
    10:00 -1°C° 0 mm 1 mps 622 mmHg 69%
    11:00 0°C° 0 mm 1 mps 623 mmHg 70%
    12:00 +2°C° 0 mm 1 mps 623 mmHg 70%
    13:00 +2°C° 0 mm 1 mps 623 mmHg 71%
    14:00 +1°C° 0 mm 1 mps 622 mmHg 71%
    15:00 +1°C° 0 mm 1 mps 622 mmHg 72%
    16:00 -2°C° 0 mm 1 mps 621 mmHg 76%
    17:00 -4°C° 0 mm 1 mps 620 mmHg 80%
    18:00 -8°C° 0 mm 1 mps 619 mmHg 84%
    19:00 -8°C° 0 mm 1 mps 619 mmHg 83%
    20:00 -9°C° 0 mm 1 mps 619 mmHg 82%
    21:00 -9°C° 0 mm 1 mps 619 mmHg 81%
    22:00 -9°C° 0 mm 1 mps 619 mmHg 80%
    23:00 -10°C° 0 mm 0 mps 619 mmHg 80%

    20 January, Friday

    Time Temperature Precipitation Wind Pressure Humidity
    00:00 -10°C° 0 mm 0 mps 619 mmHg 79%
    01:00 -10°C° 0 mm 1 mps 619 mmHg 79%
    02:00 -10°C° 0 mm 1 mps 619 mmHg 79%
    03:00 -10°C° 0 mm 1 mps 619 mmHg 79%
    04:00 -10°C° 0 mm 1 mps 619 mmHg 80%
    05:00 -10°C° 0 mm 1 mps 620 mmHg 81%
    06:00 -10°C° 0 mm 1 mps 620 mmHg 81%
    07:00 -8°C° 0 mm 1 mps 621 mmHg 80%
    08:00 -6°C° 0 mm 1 mps 622 mmHg 78%
    09:00 -4°C° 0 mm 1 mps 623 mmHg 77%
    10:00 -2°C° 0 mm 1 mps 624 mmHg 75%
    11:00 -1°C° 0 mm 1 mps 624 mmHg 73%
    12:00 0°C° 0 mm 1 mps 624 mmHg 71%
    13:00 0°C° 0 mm 1 mps 624 mmHg 72%
    14:00 0°C° 0 mm 1 mps 624 mmHg 73%
    15:00 0°C° 0 mm 1 mps 623 mmHg 73%
    16:00 -2°C° 0 mm 1 mps 623 mmHg 78%
    17:00 -3°C° 0 mm 1 mps 622 mmHg 82%
    18:00 -6°C° 0 mm 1 mps 622 mmHg 86%
    19:00 -6°C° 0.1 mm 1 mps 622 mmHg 87%
    20:00 -6°C° 0.1 mm 1 mps 622 mmHg 87%
    21:00 -7°C° 0.1 mm 1 mps 622 mmHg 88%
    22:00 -7°C° 0.1 mm 1 mps 622 mmHg 88%
    23:00 -7°C° 0.1 mm 1 mps 622 mmHg 89%

    21 January, Saturday

    Time Temperature Precipitation Wind Pressure Humidity
    00:00 -7°C° 0.1 mm 1 mps 622 mmHg 89%
    01:00 -7°C° 0.1 mm 1 mps 621 mmHg 89%
    02:00 -7°C° 0.1 mm 1 mps 621 mmHg 90%
    03:00 -7°C° 0.1 mm 1 mps 621 mmHg 90%
    04:00 -7°C° 0.1 mm 1 mps 621 mmHg 90%
    05:00 -8°C° 0.1 mm 1 mps 621 mmHg 90%
    06:00 -8°C° 0.1 mm 1 mps 621 mmHg 91%
    07:00 -7°C° 0 mm 1 mps 622 mmHg 88%
    08:00 -6°C° 0 mm 1 mps 622 mmHg 86%
    09:00 -4°C° 0 mm 1 mps 623 mmHg 84%
    10:00 -3°C° 0 mm 1 mps 623 mmHg 80%
    11:00 -2°C° 0 mm 1 mps 623 mmHg 77%
    12:00 -1°C° 0 mm 1 mps 623 mmHg 73%
    13:00 -1°C° 0 mm 1 mps 623 mmHg 73%
    14:00 -1°C° 0 mm 1 mps 623 mmHg 73%
    15:00 -1°C° 0 mm 1 mps 622 mmHg 73%
    16:00 -3°C° 0 mm 1 mps 621 mmHg 78%
    17:00 -7°C° 0 mm 1 mps 621 mmHg 83%
    18:00 -9°C° 0 mm 1 mps 620 mmHg 88%
    19:00 -9°C° 0 mm 1 mps 620 mmHg 89%
    20:00 -9°C° 0 mm 1 mps 620 mmHg 89%
    21:00 -9°C° 0 mm 1 mps 620 mmHg 89%
    22:00 -9°C° 0 mm 1 mps 621 mmHg 89%
    23:00 -9°C° 0 mm 1 mps 621 mmHg 89%

    22 January, Sunday

    Time Temperature Precipitation Wind Pressure Humidity
    00:00 -9°C° 0 mm 1 mps 621 mmHg 89%
    01:00 -8°C° 0 mm 1 mps 621 mmHg 89%
    02:00 -8°C° 0 mm 1 mps 622 mmHg 90%
    03:00 -8°C° 0 mm 1 mps 622 mmHg 90%
    04:00 -8°C° 0 mm 1 mps 622 mmHg 90%
    05:00 -8°C° 0 mm 1 mps 622 mmHg 90%
    06:00 -8°C° 0 mm 1 mps 623 mmHg 91%
    07:00 -8°C° 0.1 mm 2 mps 624 mmHg 89%
    08:00 -8°C° 0.1 mm 2 mps 624 mmHg 87%
    09:00 -7°C° 0.1 mm 2 mps 625 mmHg 84%
    10:00 -6°C° 0.2 mm 2 mps 625 mmHg 81%
    11:00 -6°C° 0.2 mm 3 mps 626 mmHg 78%
    12:00 -5°C° 0.2 mm 3 mps 626 mmHg 75%
    13:00 -5°C° 0.2 mm 3 mps 626 mmHg 76%
    14:00 -5°C° 0.2 mm 3 mps 626 mmHg 76%
    15:00 -5°C° 0.2 mm 3 mps 626 mmHg 77%
    16:00 -6°C° 0.1 mm 3 mps 626 mmHg 80%
    17:00 -7°C° 0.1 mm 3 mps 626 mmHg 83%
    18:00 -8°C° 0.1 mm 3 mps 626 mmHg 86%
    19:00 -9°C° 0 mm 3 mps 626 mmHg 87%
    20:00 -8°C° 0 mm 2 mps 626 mmHg 87%
    21:00 -8°C° 0 mm 2 mps 627 mmHg 88%
    22:00 -9°C° 0 mm 2 mps 626 mmHg 88%
    23:00 -9°C° 0 mm 2 mps 626 mmHg 88%
    Show more